[[{"header":{"parameterUnit":"m.s-1","parameterCategory":1,"la1":30.2991,"la2":30.254,"lo1":-89.0895,"lo2":-89.0444,"dy":0.0017,"dx":0.0017,"nx":28,"ny":28,"refTime":"2025-01-18T09:00:00:Z","depth":0,"parameterNumber":2,"parameterNumberName":"U-component_of_WINDS"},"data":[0,0,0,0,0,0,0,0,0,0,0,0,0,0,0,0,0,0,0,0,0,0,0,0,0,0,0,0,0,0,0,0,0,0,0,0,0,0,0,0,0,0,0,0,0,0,0,0,0,0,0,0,0,0,0,0,0,0,1.7813,1.7814,0,1.7848,1.7848,1.7849,1.7819,1.7818,1.7817,1.7815,1.7853,1.7855,1.7858,0,0,0,0,0,0,0,0,0,0,0,0,0,1.7725,1.7727,1.7813,1.7814,1.7814,1.7848,1.7848,1.7849,1.7819,1.7818,1.7816,1.7815,1.7853,1.7855,1.7858,0,0,0,0,0,0,0,0,0,0,0,0,0,1.7762,1.7727,1.7813,1.7803,1.7803,1.7848,1.7848,1.7849,1.782,1.7818,1.7816,1.7814,1.7852,1.7855,1.7858,1.7915,0,0,1.7868,1.7869,0,0,0,0,0,0,0,0,1.776,1.7765,1.7804,1.7804,1.7804,1.7827,1.7831,1.7871,1.782,1.7813,1.7815,1.7813,1.7846,1.785,1.786,1.7917,1.7919,1.7868,1.787,1.7872,1.7873,0,0,0,0,0,0,0,1.7757,1.7764,1.7827,1.7805,1.7805,1.7798,1.7802,1.7839,1.784,1.7814,1.7812,1.7816,1.7846,1.7857,1.7861,1.7919,1.7868,1.7871,1.7873,1.7874,1.8026,1.8028,0,0,0,0,0,0,1.7755,1.7762,1.7826,1.7828,1.7777,1.7802,1.7805,1.7822,1.7839,1.784,1.7818,1.7815,1.7853,1.7857,1.7862,1.7931,1.7872,1.7875,1.7876,1.8024,1.8026,1.8029,0,0,0,0,0,0,1.7754,1.7761,1.7825,1.7794,1.7802,1.7805,1.7824,1.7823,1.7835,1.7842,1.7843,1.7829,1.7852,1.7858,1.7902,1.7932,1.7876,1.7879,1.8021,1.8025,1.8028,1.8069,0,0,0,0,0,0,1.7751,1.7761,1.7782,1.7795,1.7804,1.7863,1.7826,1.7825,1.784,1.7837,1.7853,1.7854,1.7851,1.7898,1.7906,1.7936,1.7882,1.8019,1.8023,1.8027,1.8065,1.8074,1.8081,0,0,0,0,0,1.7748,1.7792,1.7783,1.7791,1.783,1.7865,1.787,1.7864,1.7843,1.7864,1.7869,1.7854,1.7928,1.7903,1.7911,1.7943,1.8017,1.8022,1.8026,1.8062,1.8072,1.808,0,0,0,0,0,0,1.7783,1.7794,1.7784,1.7833,1.7848,1.786,1.7887,1.7875,1.7897,1.7893,1.7886,1.789,1.7937,1.7944,1.7916,1.8,1.7969,1.7976,1.7993,1.8003,1.801,1.8008,1.7884,0,0,0,0,0,1.7797,1.7823,1.7832,1.7875,1.7883,1.7884,1.7899,1.7893,1.7909,1.7915,1.7924,1.794,1.7967,1.7985,1.8011,1.8066,1.807,1.8092,1.81,1.8106,1.8112,1.8144,1.8154,1.8044,1.8044,1.8044,0,0,1.7825,1.7834,1.7851,1.7882,1.7893,1.7922,1.7889,1.7921,1.7943,1.792,1.7963,1.797,1.7988,1.8039,1.8062,1.8047,1.8143,1.8112,1.8117,1.812,1.815,1.816,1.8169,1.8047,1.8047,1.8046,0,0,1.7891,1.79,1.7937,1.7949,1.7966,1.7967,1.7976,1.799,1.7993,1.8036,1.802,1.8046,1.8093,1.8107,1.812,1.8193,1.818,1.8202,1.8242,1.8272,1.8281,1.8289,1.8316,1.8326,1.8208,1.8208,1.8208,0,1.7924,1.7966,1.7958,1.7992,1.8006,1.7987,1.8026,1.8038,1.8063,1.8074,1.8056,1.8115,1.8126,1.8181,1.8198,1.8209,1.8221,1.82,1.828,1.8288,1.8295,1.8321,1.8331,1.821,1.821,1.821,1.821,0,1.8006,1.8036,1.8065,1.8089,1.8106,1.8142,1.8141,1.8161,1.8154,1.8157,1.8201,1.8214,1.8242,1.8254,1.8248,1.8309,1.8299,1.8281,1.825,1.8308,1.8332,1.8342,1.8214,1.8213,1.8212,1.8212,0,0,1.8095,1.8115,1.8126,1.8137,1.8155,1.8178,1.8214,1.8241,1.8258,1.8277,1.8307,1.8348,1.8332,1.8347,1.8342,1.8369,1.8428,1.8348,1.8349,1.8364,1.8497,1.8511,1.8522,1.8419,1.8421,1.8423,1.8496,0,1.8163,1.8224,1.8219,1.8277,1.8305,1.8288,1.8319,1.8335,1.8339,1.8364,1.8369,1.8398,1.8374,1.8383,1.8409,1.8415,1.8455,1.841,1.8449,1.8451,1.8445,1.8535,1.8549,1.8617,1.8505,1.8507,1.8508,0,1.8249,1.827,1.8331,1.8346,1.8358,1.8386,1.8411,1.8435,1.8453,1.8454,1.8472,1.8463,1.8501,1.8469,1.8521,1.8491,1.8507,1.8513,1.8515,1.8519,1.8483,1.8542,1.8639,1.8649,1.8523,1.8521,1.852,0,1.8309,1.8353,1.8395,1.8405,1.8423,1.8444,1.8453,1.8468,1.8485,1.8508,1.8519,1.8546,1.8561,1.8582,1.8581,1.8558,1.8635,1.8603,1.8638,1.8638,1.8655,1.8654,1.8757,1.8665,1.8665,1.8664,1.8664,0,1.8385,1.8424,1.8422,1.8448,1.8492,1.8486,1.8529,1.8536,1.855,1.8578,1.8565,1.8592,1.8589,1.8617,1.8617,1.8661,1.8668,1.8671,1.8671,1.8672,1.8672,1.8683,1.8678,1.8667,1.8667,1.8666,1.8666,0,1.8459,1.8459,1.8505,1.8519,1.8523,1.8554,1.8567,1.8592,1.8595,1.8632,1.864,1.8645,1.8677,1.8679,1.8716,1.8716,1.877,1.8764,1.8764,1.8763,1.8799,1.8796,1.8912,1.8928,1.8825,1.8826,1.8827,0,1.8508,1.8537,1.8554,1.8571,1.8581,1.861,1.8627,1.8624,1.8642,1.8666,1.8689,1.872,1.8744,1.8796,1.8804,1.8833,1.8828,1.8867,1.8832,1.8834,1.883,1.8828,1.8832,1.8874,1.8875,1.8876,1.8877,0,1.8595,1.8594,1.8618,1.8644,1.8665,1.8685,1.8704,1.872,1.8718,1.8741,1.8773,1.8792,1.883,1.8861,1.8889,1.89,1.8889,1.8888,1.8898,1.89,1.8899,1.8901,1.8783,1.8885,1.8884,1.8884,1.8883,1.8883,1.8658,1.8683,1.87,1.8728,1.8742,1.876,1.8785,1.8792,1.8818,1.8848,1.8845,1.8882,1.89,1.8937,1.8949,1.8979,1.8966,1.898,1.8983,1.8987,1.8991,1.8894,1.8984,1.8984,1.8983,1.8983,1.8983,0,1.8745,1.8754,1.8781,1.8807,1.8831,1.8818,1.8838,1.8859,1.8891,1.8908,1.8933,1.8971,1.9002,1.9012,1.9042,1.9064,1.906,1.9072,1.9071,1.9074,1.9001,1.899,1.9075,1.9075,1.9075,1.9075,1.9075,1.9075,1.8792,1.8835,1.8837,1.8887,1.8897,1.8932,1.8945,1.8962,1.8976,1.9019,1.9044,1.9051,1.9067,1.9098,1.9126,1.9129,1.9141,1.9155,1.9156,1.9088,1.9079,1.907,1.9059,1.9158,1.9158,1.9226,1.9227,1.9227]},{"header":{"parameterUnit":"m.s-1","parameterCategory":1,"la1":30.2991,"la2":30.254,"lo1":-89.0895,"lo2":-89.0444,"dy":0.0017,"dx":0.0017,"nx":28,"ny":28,"refTime":"2025-01-18T09:00:00:Z","depth":0,"parameterNumber":3,"parameterNumberName":"V-component_of_WINDS"},"data":[0,0,0,0,0,0,0,0,0,0,0,0,0,0,0,0,0,0,0,0,0,0,0,0,0,0,0,0,0,0,0,0,0,0,0,0,0,0,0,0,0,0,0,0,0,0,0,0,0,0,0,0,0,0,0,0,0,0,1.2804,1.2804,0,1.2864,1.2865,1.2866,1.2884,1.2884,1.2883,1.2883,1.2942,1.2943,1.2945,0,0,0,0,0,0,0,0,0,0,0,0,0,1.27,1.2702,1.2804,1.2804,1.2805,1.2864,1.2865,1.2866,1.2884,1.2884,1.2883,1.2883,1.2941,1.2943,1.2945,0,0,0,0,0,0,0,0,0,0,0,0,0,1.2751,1.2702,1.2803,1.2821,1.2824,1.2864,1.2865,1.2866,1.2884,1.2884,1.2883,1.2883,1.294,1.2943,1.2946,1.2972,0,0,1.2954,1.2955,0,0,0,0,0,0,0,0,1.2748,1.2755,1.2818,1.282,1.2823,1.2866,1.285,1.2901,1.2884,1.2861,1.2883,1.2883,1.2917,1.2921,1.2934,1.2974,1.2977,1.2954,1.2956,1.2957,1.2958,0,0,0,0,0,0,0,1.2745,1.2752,1.2828,1.2819,1.2822,1.2825,1.2832,1.286,1.289,1.2863,1.2864,1.2872,1.2918,1.2931,1.2935,1.2978,1.2954,1.2957,1.2958,1.296,1.3042,1.3043,0,0,0,0,0,0,1.2738,1.2749,1.2826,1.2829,1.2784,1.2827,1.2835,1.2853,1.289,1.2896,1.2872,1.2872,1.2926,1.2932,1.2937,1.297,1.2957,1.296,1.2961,1.3042,1.3042,1.3043,0,0,0,0,0,0,1.2736,1.2745,1.2823,1.279,1.28,1.283,1.2849,1.2854,1.2867,1.2897,1.2902,1.288,1.2926,1.2933,1.2963,1.2972,1.2961,1.2964,1.3041,1.3042,1.3043,1.3036,0,0,0,0,0,0,1.2733,1.2744,1.2755,1.279,1.2802,1.2849,1.285,1.2856,1.2872,1.2873,1.2906,1.2911,1.2926,1.2959,1.2966,1.2976,1.2966,1.304,1.3042,1.3042,1.3036,1.3036,1.3037,0,0,0,0,0,1.2729,1.275,1.2756,1.2765,1.2816,1.285,1.2856,1.2875,1.2873,1.2884,1.2903,1.291,1.297,1.2962,1.297,1.2981,1.304,1.3041,1.3042,1.3035,1.3036,1.3037,0,0,0,0,0,0,1.2715,1.2755,1.2762,1.2795,1.2819,1.2853,1.2867,1.2876,1.29,1.29,1.2921,1.2928,1.2956,1.2971,1.2961,1.3008,1.3005,1.3008,1.2997,1.2998,1.2999,1.2995,1.2968,0,0,0,0,0,1.2716,1.2741,1.2774,1.28,1.2812,1.2837,1.2852,1.2865,1.289,1.29,1.2921,1.2944,1.2969,1.2984,1.3008,1.3037,1.3045,1.3049,1.305,1.305,1.3053,1.3069,1.3071,1.3047,1.3047,1.3047,0,0,1.2717,1.2742,1.2757,1.2797,1.2818,1.2842,1.2846,1.2871,1.2889,1.2903,1.2933,1.2949,1.2977,1.3006,1.3021,1.302,1.3061,1.3052,1.3052,1.3054,1.3071,1.3073,1.3075,1.3048,1.3048,1.3048,0,0,1.2733,1.2755,1.2779,1.2799,1.283,1.2846,1.2852,1.2885,1.2896,1.2927,1.2938,1.2959,1.3,1.3019,1.3034,1.3056,1.3063,1.3063,1.3068,1.3084,1.3086,1.3087,1.3095,1.3098,1.3065,1.3065,1.3065,0,1.2731,1.2769,1.2789,1.2815,1.2832,1.2847,1.2871,1.2889,1.2925,1.2936,1.2935,1.2988,1.3007,1.3041,1.3047,1.3058,1.3065,1.306,1.3084,1.3086,1.3088,1.3096,1.3098,1.3065,1.3065,1.3065,1.3065,0,1.2765,1.2791,1.2807,1.2843,1.2862,1.2886,1.2909,1.2925,1.2935,1.2952,1.2982,1.3006,1.3035,1.3043,1.3053,1.3079,1.3078,1.308,1.3078,1.309,1.3097,1.31,1.3065,1.3065,1.3065,1.3065,0,0,1.2774,1.2821,1.2826,1.2843,1.2877,1.2898,1.2922,1.2951,1.2965,1.2989,1.3009,1.3044,1.3046,1.3063,1.3075,1.3089,1.3104,1.3089,1.309,1.3091,1.3134,1.3132,1.3135,1.3109,1.311,1.311,1.3132,0,1.2794,1.284,1.2859,1.2895,1.2919,1.2933,1.2954,1.2977,1.2993,1.3015,1.3031,1.3056,1.3057,1.3067,1.3081,1.31,1.3113,1.3098,1.3128,1.3129,1.3121,1.3139,1.3138,1.3157,1.3135,1.3135,1.3136,0,1.2824,1.285,1.2889,1.2921,1.2932,1.2951,1.2979,1.3,1.3025,1.3036,1.3054,1.3066,1.309,1.3086,1.312,1.311,1.3122,1.3133,1.3134,1.3138,1.3133,1.3144,1.3164,1.3167,1.314,1.314,1.314,0,1.2827,1.2871,1.2901,1.2914,1.2952,1.2965,1.298,1.3006,1.3022,1.3046,1.3057,1.3083,1.3097,1.3116,1.3134,1.3129,1.3166,1.3163,1.3175,1.3174,1.3182,1.3182,1.3205,1.319,1.319,1.319,1.319,0,1.2848,1.2872,1.2903,1.2921,1.2947,1.2967,1.2992,1.3009,1.3031,1.3052,1.3065,1.3084,1.3105,1.3126,1.314,1.3166,1.3172,1.3181,1.3184,1.318,1.3179,1.3189,1.3188,1.3191,1.319,1.319,1.319,0,1.2856,1.2878,1.2911,1.2944,1.2952,1.297,1.2998,1.3015,1.3031,1.3057,1.3064,1.3089,1.3115,1.3134,1.3167,1.3176,1.3204,1.3207,1.3195,1.3197,1.3208,1.3206,1.3238,1.3243,1.3225,1.3225,1.3225,0,1.2868,1.2887,1.2922,1.2938,1.2954,1.2978,1.2995,1.3015,1.3032,1.3063,1.3076,1.3103,1.3125,1.3165,1.3185,1.321,1.3215,1.3224,1.3218,1.3213,1.3215,1.3214,1.3216,1.3225,1.3225,1.3225,1.3225,0,1.2888,1.2898,1.2922,1.2951,1.2971,1.2994,1.3017,1.3028,1.3052,1.307,1.3097,1.3115,1.3149,1.3175,1.3202,1.3217,1.3225,1.3227,1.3231,1.3227,1.322,1.3224,1.3198,1.3226,1.3226,1.3226,1.3226,1.3226,1.2899,1.2916,1.2943,1.297,1.299,1.3011,1.3029,1.3048,1.3071,1.3101,1.3111,1.3139,1.3163,1.32,1.3215,1.3236,1.3236,1.3242,1.3244,1.3245,1.3245,1.3216,1.3241,1.3241,1.3241,1.3241,1.3241,0,1.2919,1.2937,1.2962,1.2994,1.3015,1.3022,1.3047,1.3064,1.3089,1.3111,1.3133,1.3164,1.3189,1.3211,1.3237,1.325,1.3254,1.3256,1.3256,1.3259,1.3243,1.3237,1.3252,1.3252,1.3252,1.3252,1.3252,1.3252,1.2932,1.2962,1.2974,1.3013,1.3031,1.306,1.3074,1.3093,1.3111,1.3145,1.3167,1.3181,1.3203,1.3231,1.3254,1.326,1.3269,1.327,1.3276,1.3261,1.326,1.3259,1.3253,1.3271,1.3271,1.329,1.329,1.3291]}]]